Location: Allens Landing
(37.8284°N, 89.7284°W)
Time: 12:01:42
(UTC+00:00)

Vanguard 2 - Pass Details

Date: 18 December 2025
Orbit: 552 x 2898 km, 32.9° (Epoch: 13 January)

Event Time Altitude Azimuth Distance (km) Brightness Sun altitude
Exits shadow 10:36:10 24° 142° (SE) 1,149 8.8 -29.3°
Drops below altitude 10° 10:38:09 10° 123° (ESE) 1,844 10.3 -28.9°
Sets 10:40:35 0° 114° (ESE) 2,833 11.6 -28.5°
